ARIANE 1 DEB

Satellite information

Favourite Embed

Satellite Type and Status

DEBRISIN ORBIT

Key statistics

Satellite ARIANE 1 DEB at a glance.

Uptime

14379

Days in orbit

Revolutions

≈ 14.3

Per day

Orbit

SSO

Sun Synchronous Orbit

Inclination

98.3

Latest

Satellite identification and parameters

Extended collection of information and parameters for ARIANE 1 DEB.

Object identification

Identified? True

Debris? True

Object name: ARIANE 1 DEB

International designator: 1986-019D

Object number (NORAD): 16616

Object ID (CCSDS): 16616

Country: FRANCE (FR)

Current information (Y/N): Y

RCS size: MEDIUM

Orbital parameters

Period: 100.632 minutes

Inclination: 98.2598 deg

SMA: 7166.695 km

Apoapsis: 794.071 km

Periapsis: 783.049 km

RAAN: 194.3708 deg

Eccentricy: 0.000769

Argument of periapsis: 169.7568 deg

Mean anomaly: 301.423 deg

Mean motion: 14.30949822 rev/day

Mean motion (dot): 0.00000287 rev/day2

B* drag term: 0.00012489 1/REarth

Two-line elements (TLE)

Creation date: July 5, 2025, 5:45 p.m.

Reference frame: TEME

Reference center: EARTH

Epoch: July 5, 2025, 1:45 p.m. UTC

TLE line 0: 0 ARIANE 1 DEB

TLE line 1: 1 16616U 86019D 25186.57328399 .00000287 00000-0 12489-3 0 9996

TLE line 2: 2 16616 98.2598 194.3708 0007690 169.7568 301.4230 14.30949822 48668

Live tracking on map

Real-time ground track for satellite ARIANE 1 DEB.

In-orbit conjunctions

A list of the most updated potential collisions computed for object ARIANE 1 DEB.

Target Orbit TCA Probability of collision Miss distance Type
FENGYUN 1C DEB SSO 2024-09-26 05:54:33 0.0002816047 592.0 (m) DEBRIS
FENGYUN 1C DEB SSO 2024-09-24 07:00:27 0.001644923 36.0 (m) DEBRIS

Associated space launch

SPOT 1 is a French Earth observation satellite. Viking is Sweden's first satellite.

ARIANE 1 DEB was lifted into orbit during the mission ‘Ariane 1 | SPOT 1 & Viking’, on board a Ariane 1 space rocket.

The launch took place on Feb. 22, 1986, 1:44 a.m. from Ariane Launch Area 1 (ELV).

For more information about the launch, click the button.

Launch to space Ariane 1 | SPOT 1 & Viking
Ariane 1 | SPOT 1 & Viking

Agency: N/A

Status: Launch Successful

Launch date: Feb. 22, 1986, 1:44 a.m. UTC

Rocket: Ariane 1

Launch pad: Ariane Launch Area 1 (ELV)

Location: Guiana Space Centre, French Guiana

...

Latest news about this satellite

There are no fresh news available about this satellite. Check back as we update our databases every day.


Newsletter sign-up

Weekly statistics, charts and insights to help you stay on top of the space industry.